Regional Weather Roundup
Issued by NWS

Home | Current Version | Previous Version | Text Only | Print | Product List | Glossary On
Versions: 1 2 3 4 5 6 7 8 9 10 11 12 13 14 15 16 17 18 19 20 21 22 23 24 25 26 27 28 29 30 31 32 33 34 35 36 37 38 39 40 41 42 43 44 45 46 47 48 49 50
052
ASUS43 KTOP 310259
RWRKS

WEATHER ROUNDUP FOR KANSAS
NATIONAL WEATHER SERVICE GOODLAND KS
1000 PM CDT SAT JUL 30 2016

NOTE:  "FAIR" INDICATES FEW OR NO CLOUDS BELOW 12,000 FEET WITH NO
SIGNIFICANT WEATHER AND/OR OBSTRUCTIONS TO VISIBILITY.

KSZ001>006-013>018-027>032-041>047-310400-
NORTHWEST KANSAS

CITY           SKY/WX    TMP DP  RH WIND       PRES   REMARKS
GOODLAND       CLOUDY    75  65  70 SE10      29.91S
HAYS           CLEAR     79  64  61 SE14      29.91R
HILL CITY      PTCLDY    81  68  64 SE12      29.90R
RUSSELL        CLEAR     78  67  68 SE14      29.91R
$$

KSZ061>065-074>080-084>089-310400-
SOUTHWEST KANSAS

CITY           SKY/WX    TMP DP  RH WIND       PRES   REMARKS
DODGE CITY     CLEAR     80  63  55 SE14G21   29.91R
ELKHART          N/A     80  59  48 S10         N/A
GARDEN CITY    CLEAR     79  65  62 SE17      29.89R
GREAT BEND     CLEAR     79  66  65 SE14      29.91S
LIBERAL        CLEAR     82  57  42 S9        29.93R
$$

KSZ066>073-081>083-090>101-310400-
SOUTHEAST KANSAS

CITY           SKY/WX    TMP DP  RH WIND       PRES   REMARKS
CHANUTE        CLEAR     77  70  79 SE7       29.96R
COFFEYVILLE    CLEAR     76  71  85 SE6       29.95R
HUTCHINSON     CLEAR     80  70  71 SE8       29.93R
NEWTON         CLEAR     77  69  76 SE10      29.95R
PARSONS        CLEAR     76  71  85 CALM      29.97R
WICHITA INTL   PTCLDY    80  71  74 SE10      29.93R
WICHITA JABRA  CLEAR     78  69  73 SE10      29.94R
WINFIELD       CLEAR     78  71  79 SE7       29.95R
$$

KSZ007>012-019>026-033>040-048>060-102>105-310400-
NORTHEAST KANSAS

CITY           SKY/WX    TMP DP  RH WIND       PRES   REMARKS
CONCORDIA      CLEAR     74  69  85 SE8       29.94R
EMPORIA        CLEAR     77  71  82 SE8       29.95R
LAWRENCE       CLEAR     73  70  90 SE5       29.96R
MANHATTAN      CLEAR     77  70  79 CALM      29.94R
OLATHE IND     CLEAR     76  69  79 E6        29.98R
OLATHE EXE     CLEAR     75  67  76 SE7       29.98R
SALINA         CLEAR     81  68  64 SE8       29.92R
TOPEKA BILLARD CLEAR     76  71  85 E3        29.95R
TOPEKA FORBES  CLEAR     77  72  84 E6        29.96R
$$




USA.gov is the U.S. government's official web portal to all federal, state and local government web resources and services.